Location: Hohenfelde
(53.8441°N, 9.6220°E)
Time: 12:37:41
(UTC+00:00)

Cosmos 2369 - Pass Details

Date: 14 July 2020
Orbit: 838 x 857 km, 71.0° (Epoch: 13 August)

Event Time Altitude Azimuth Distance (km) Brightness Sun altitude
Rises 01:37:42 0° 325° (NW) 3,436 7.2 -9.5°
Reaches altitude 10° 01:40:13 10° 321° (NW) 2,498 6.4 -9.3°
Maximum altitude 01:45:46 53° 247° (WSW) 1,049 3.9 -8.9°
Drops below altitude 10° 01:51:18 10° 172° (S) 2,486 5.7 -8.4°
Sets 01:53:48 0° 167° (SSE) 3,419 6.4 -8.2°
